CAPE
0 0 0 0 0 0 0 0 0 0 0 0 0 0 0 0 4 0 0 0 11 201 300 525 823 907 722 627 467 403 316 39 3 31 7 45 106 61 25 22 31 34 12 13 14 11 12 16 21
0 0 0 0 0 0 0 0 0 0 0 0 0 0 0 0 0 4 6 2 28 185 208 355 607 809 577 441 454 389 248 81 3 10 7 45 18 10 18 12 28 31 28 9 4 9 8 14 8
0 0 0 0 0 0 0 0 0 0 0 0 0 0 0 0 0 0 0 16 7 101 165 297 577 724 490 436 421 325 186 90 4 8 12 14 35 13 46 19 14 24 17 9 7 6 2 0 0
0 0 0 0 0 0 0 0 0 0 0 0 0 0 0 0 0 0 7 8 9 15 109 234 572 632 465 437 245 113 128 1 4 7 11 11 21 11 30 40 29 16 7 8 5 0 0 0 0
0 0 0 0 0 0 0 0 0 0 0 0 0 0 0 1 0 0 0 15 2 1 33 187 399 516 514 431 250 192 104 62 14 12 10 15 32 27 26 33 20 20 8 6 1 0 0 0 0
0 0 0 0 0 0 0 0 0 0 0 0 0 0 0 0 0 0 0 13 7 4 28 107 218 237 311 347 330 261 197 77 14 15 10 6 33 37 32 41 31 8 11 1 1 0 0 0 0
0 0 0 0 0 0 0 0 0 0 0 0 0 0 0 0 0 0 0 19 0 9 12 4 1 49 133 172 166 188 208 143 31 22 6 3 6 31 31 10 34 13 15 11 1 0 0 0 0
0 0 0 0 0 0 0 0 0 0 0 0 0 0 0 0 0 0 0 37 2 0 2 0 0 0 0 30 98 85 55 14 35 0 0 0 0 2 12 3 8 4 10 28 11 0 0 0 0
0 0 0 0 0 0 0 0 0 0 0 0 0 0 0 0 0 1 0 0 15 2 0 0 0 0 0 0 3 26 19 0 0 0 0 0 0 0 0 0 1 6 8 12 0 0 0 0 0
0 0 0 0 0 0 0 0 0 0 0 0 0 1 0 0 13 13 0 0 1 5 0 0 0 0 0 0 0 0 0 0 0 0 0 0 0 0 0 0 0 4 2 19 0 0 0 0 0
0 0 0 0 0 0 0 0 0 0 0 0 0 1 58 29 8 16 0 0 0 0 0 0 0 0 0 0 0 0 0 0 0 0 0 0 0 0 0 0 0 0 5 1 0 0 0 0 0
0 0 0 0 0 0 0 0 0 0 0 0 0 0 0 23 17 25 17 0 0 0 0 0 0 0 0 0 0 0 0 0 0 0 0 0 0 0 0 0 0 0 0 0 0 0 0 0 0
0 0 0 0 0 0 0 0 0 0 0 0 0 0 19 13 10 13 12 4 0 0 0 0 0 0 0 0 0 0 1 0 0 0 0 0 0 0 0 0 0 0 0 0 0 0 0 0 0
0 0 0 0 0 0 0 0 0 0 0 0 0 0 0 24 15 2 14 15 6 0 0 0 0 0 0 0 0 0 0 0 0 0 0 0 0 0 0 0 0 0 0 0 0 0 0 0 0
0 0 0 0 0 0 0 0 0 0 0 0 0 0 0 0 9 43 23 34 29 9 0 0 0 0 0 0 0 0 0 0 0 0 0 0 0 0 0 0 0 0 0 0 0 0 0 0 0
0 0 0 0 0 0 0 0 0 0 0 0 0 0 0 0 0 22 40 45 49 44 14 0 0 0 0 0 0 0 0 0 0 0 0 0 0 0 0 0 0 0 0 0 0 0 0 0 0
13 4 0 0 0 0 0 0 0 0 0 0 0 0 0 0 0 0 3 45 117 89 61 32 0 0 0 0 0 0 0 0 0 0 0 0 0 0 0 0 0 0 0 0 0 0 0 0 0
1 1 0 0 0 0 0 0 0 0 0 0 0 0 0 0 0 0 0 1 125 103 122 43 17 0 0 0 0 0 0 0 0 0 0 0 0 0 0 0 0 0 0 0 0 0 0 0 0
0 0 0 0 0 0 0 0 0 0 0 0 0 0 0 0 0 0 0 0 6 83 109 104 45 18 0 0 0 0 2 0 0 0 0 0 0 0 0 0 0 0 0 0 0 0 0 0 0
1 3 0 0 0 0 0 0 0 0 0 0 0 0 0 0 0 0 0 0 0 11 129 167 131 102 20 5 4 2 5 0 6 1 0 8 0 0 0 0 0 0 0 0 0 0 0 0 0
2 0 0 0 0 0 0 0 0 0 0 0 0 0 0 0 0 0 0 0 0 0 8 127 120 114 94 73 38 1 0 0 14 42 34 19 12 1 0 0 0 0 0 0 0 0 0 0 0
0 0 0 0 1 0 0 0 0 0 0 0 0 0 0 0 0 0 0 0 0 0 0 0 15 41 45 78 74 29 38 7 27 63 69 59 23 29 10 3 0 0 0 0 0 0 0 0 0
0 0 0 0 0 1 0 7 0 0 0 0 0 0 0 0 0 0 0 0 0 0 0 0 0 0 0 4 81 62 40 79 66 41 50 57 67 50 40 9 2 0 0 0 0 0 0 0 0
0 7 2 0 0 13 0 0 0 0 0 0 0 0 0 0 0 0 0 0 0 0 0 0 0 0 0 0 0 6 53 93 112 107 64 55 61 58 29 40 23 6 1 1 0 0 0 0 0
12 34 20 51 20 1 0 0 0 0 0 0 0 0 0 0 0 0 0 0 0 0 0 0 0 0 0 0 0 0 0 0 8 78 177 150 80 36 46 41 29 13 8 3 4 0 0 0 0
0 3 1 0 0 0 0 1 0 0 0 0 0 0 0 0 0 0 0 0 0 0 0 0 0 0 0 0 0 0 0 0 0 0 2 113 136 104 59 47 19 7 4 0 0 0 0 0 0
4 34 0 31 0 0 0 0 0 0 0 0 0 0 0 0 0 0 0 0 0 0 0 0 0 0 0 0 0 0 0 0 0 0 0 0 113 148 96 28 14 5 3 1 0 0 0 0 0
22 1 50 31 18 1 0 0 0 0 0 0 0 0 0 0 0 0 0 0 0 0 0 0 0 0 0 0 0 0 0 0 0 0 0 0 0 62 82 25 8 11 9 15 7 2 0 0 0
4 41 46 14 9 11 0 0 0 0 0 0 0 0 0 0 0 0 0 0 0 0 0 0 0 0 0 0 0 0 0 0 0 0 0 0 0 0 17 46 10 7 16 22 18 6 6 3 0
1 0 11 7 0 1 0 0 0 0 0 0 0 0 0 0 0 0 0 0 0 0 0 0 0 0 0 0 0 0 0 0 0 0 0 0 0 0 0 0 4 7 7 8 8 18 3 2 4
CIN
0 0 0 0 0 0 0 0 0 0 0 0 0 0 0 0 -26 0 0 0 -48 -77 -23 -3 -1 0 0 0 -1 -3 -15 -99 -1 -179 0 -147 -87 -126 -35 0 -2 0 0 0 0 0 0 0 0
0 0 0 0 0 0 0 0 0 0 0 0 0 0 0 0 0 -155 -165 -192 -140 -90 -52 -12 -7 0 -2 0 0 0 -49 -158 0 0 -1 -64 0 -2 0 -1 -1 -1 -1 0 0 0 0 0 0
0 0 0 0 0 0 0 0 0 0 0 0 0 0 0 0 0 0 0 -204 -181 -93 -68 -17 -2 0 -1 -3 -1 -14 -91 -158 0 0 0 0 -82 -3 -128 -2 -1 0 0 0 0 0 0 0 0
0 0 0 0 0 0 0 0 0 0 0 0 0 0 0 0 0 0 -191 -245 -185 -138 -79 -29 -1 0 0 -6 -42 -97 -114 -6 0 0 0 -1 -2 -4 -2 -151 0 -1 -1 0 0 0 0 0 0
0 0 0 0 0 0 0 0 0 0 0 0 0 0 0 -50 0 0 0 -250 -213 -209 -95 -37 -1 0 0 -4 -46 -68 -109 -151 -212 0 0 0 -3 -4 -4 -2 -1 0 0 0 0 0 0 0 0
0 0 0 0 0 0 0 0 0 0 0 0 0 0 0 0 0 0 0 -216 -240 -193 -103 -54 -20 -5 -4 -5 -28 -41 -74 -118 -214 0 0 0 -2 -3 -2 -1 -1 -1 0 0 0 0 0 0 0
0 0 0 0 0 0 0 0 0 0 0 0 0 0 0 0 0 0 0 -225 -11 -200 -183 -139 -5 -59 -27 -22 -37 -50 -62 -87 -170 -211 0 -1 -3 -4 -4 -5 -2 -1 0 -1 0 0 0 0 0
0 0 0 0 0 0 0 0 0 0 0 0 0 0 0 0 0 0 0 -182 -164 0 -243 0 0 0 0 -102 -57 -78 -127 -7 -156 0 0 0 0 -11 -15 -13 -8 0 -1 -4 0 0 0 0 0
0 0 0 0 0 0 0 0 0 0 0 0 0 0 0 0 0 -24 0 0 -184 -28 0 0 0 0 0 0 -22 -89 -183 0 0 0 0 0 0 0 0 0 -5 -2 -1 -1 0 0 0 0 0
0 0 0 0 0 0 0 0 0 0 0 0 0 -95 0 0 -265 -218 0 0 -19 -223 0 0 0 0 0 0 0 0 0 0 0 0 0 0 0 0 0 0 0 -13 -2 -3 0 0 0 0 0
0 0 0 0 0 0 0 0 0 0 0 0 0 -10 -229 -255 -263 -247 0 0 0 0 0 0 0 0 0 0 0 0 0 0 0 0 0 0 0 0 0 0 0 0 -16 -2 0 0 0 0 0
0 0 0 0 0 0 0 0 0 0 0 0 0 0 0 -277 -306 -284 -306 -20 0 0 0 0 0 0 0 0 0 0 0 0 0 0 0 0 0 0 0 0 0 0 0 0 0 0 0 0 0
0 0 0 0 0 0 0 0 0 0 0 0 0 0 -255 -327 -379 -266 -409 -413 0 0 0 0 0 0 0 0 0 0 0 0 0 0 0 0 0 0 0 0 0 0 0 0 0 0 0 0 0
0 0 0 0 0 0 0 0 0 0 0 0 0 0 0 -325 -374 -171 -411 -409 -404 0 0 0 0 0 0 0 0 0 0 0 0 0 0 0 0 0 0 0 0 0 0 0 0 0 0 0 0
0 0 0 0 0 0 0 0 0 0 0 0 0 0 0 0 -383 -366 -396 -430 -409 -438 -105 0 0 0 0 0 0 0 0 0 0 0 0 0 0 0 0 0 0 0 0 0 0 0 0 0 0
0 0 0 0 0 0 0 0 0 0 0 0 0 0 0 0 0 -380 -392 -417 -419 -388 -396 -77 0 0 0 0 0 0 0 0 0 0 0 0 0 0 0 0 0 0 0 0 0 0 0 0 0
-12 -3 0 0 0 0 0 0 0 0 0 0 0 0 0 0 0 0 -172 -422 -351 -370 -350 -367 0 -176 0 0 0 0 0 0 0 0 0 0 0 0 0 0 0 0 0 0 0 0 0 0 0
-4 -6 0 0 0 0 0 0 0 0 0 0 0 0 0 0 0 0 0 -136 -338 -399 -332 -362 -393 0 0 0 0 0 0 0 0 0 0 0 0 0 0 0 0 0 0 0 0 0 0 0 0
0 0 0 0 0 0 0 0 0 0 0 0 0 0 0 0 0 0 0 0 -566 -405 -383 -358 -351 -388 0 0 0 0 -289 0 0 0 0 0 0 0 0 0 0 0 0 0 0 0 0 0 0
-13 -4 -1 0 0 0 0 0 0 0 0 0 0 0 0 0 0 0 0 0 0 -377 -380 -331 -306 -289 -363 -77 -55 -48 -155 -26 -203 -203 -11 -340 -51 0 0 0 0 0 0 0 0 0 0 0 0
-3 0 0 0 0 0 0 0 0 0 0 0 0 0 0 0 0 0 0 0 0 0 -244 -375 -335 -287 -269 -247 -187 -34 0 0 -193 -212 -241 -262 -250 -159 0 0 0 0 0 0 0 0 0 0 0
0 0 0 0 -6 0 0 0 0 0 0 0 0 0 0 0 0 0 0 0 0 0 0 0 -462 -380 -286 -254 -172 -163 -102 -96 -137 -154 -156 -167 -266 -267 -327 -310 -49 0 0 0 0 0 0 0 0
0 0 0 0 0 -2 0 -8 0 0 0 0 0 0 0 0 0 0 0 0 0 0 0 0 0 0 0 -255 -118 -114 -112 -71 -64 -68 -97 -114 -153 -278 -290 -378 -160 0 0 0 0 0 0 0 0
0 -18 -49 0 0 -1 0 0 0 0 0 0 0 0 0 0 0 0 0 0 0 0 0 0 0 0 0 0 0 -153 -101 -79 -23 -18 -29 -65 -81 -126 -227 -288 -332 -347 -121 -128 0 0 0 0 0
-29 -6 -1 0 -1 -1 0 0 0 0 0 0 0 0 0 0 0 0 0 0 0 0 0 0 0 0 0 0 0 0 0 -9 -110 -48 -22 -30 -55 -91 -117 -190 -196 -260 -331 -272 -333 0 0 0 0
0 -28 0 0 0 0 0 -4 0 0 0 0 0 0 0 0 0 0 0 0 0 0 0 0 0 0 0 0 0 0 0 0 0 0 -11 -43 -39 -55 -78 -121 -154 -172 -243 0 0 0 0 0 0
-3 0 -2 -10 0 0 0 0 0 0 0 0 0 0 0 0 0 0 0 0 0 0 0 0 0 0 0 0 0 0 0 0 0 0 0 0 -63 -50 -74 -139 -169 -174 -185 -65 0 0 0 0 0
-14 -2 -3 -11 -25 -7 0 0 0 0 0 0 0 0 0 0 0 0 0 0 0 0 0 0 0 0 0 0 0 0 0 0 0 0 0 0 0 -77 -62 -146 -210 -107 -34 -165 -46 -48 0 0 0
-1 -1 -2 -1 -3 -20 0 0 0 0 0 0 0 0 0 0 0 0 0 0 0 0 0 0 0 0 0 0 0 0 0 0 0 0 0 0 0 0 -153 -100 -181 -200 -158 -115 -104 -19 -25 -44 -12
-12 -1 -14 -7 -1 -3 0 0 0 0 0 0 0 0 0 0 0 0 0 0 0 0 0 0 0 0 0 0 0 0 0 0 0 0 0 0 0 0 0 0 -49 -55 -49 -44 -23 -15 -27 -31 -32
Wind_Speed
12 13 1 5 6 6 2 2 2 2 2 2 1 3 6 2 2 2 1 8 12 11 7 7 11 13 13 12 11 11 11 11 11 11 10 9 13 14 14 14 11 12 12 11 12 11 11 11 10
9 7 5 3 6 4 4 2 3 3 3 1 3 4 2 2 2 5 5 9 12 11 8 6 11 12 13 12 12 12 12 12 11 11 9 10 11 11 12 14 11 12 12 11 11 10 10 9 8
7 1 4 5 3 3 4 5 5 3 3 2 2 4 3 5 1 8 5 10 12 9 9 7 11 12 13 12 12 12 12 12 12 11 10 10 14 12 13 13 12 10 12 10 10 9 8 8 7
6 6 5 5 1 1 4 1 4 4 2 2 3 3 2 1 6 6 13 11 11 9 9 10 11 13 13 12 12 12 11 13 13 12 9 10 11 12 12 12 12 9 11 10 9 8 7 7 7
5 4 5 3 4 5 2 3 4 2 2 3 2 4 2 4 2 7 10 12 12 7 7 9 11 12 13 13 12 12 11 11 11 12 11 10 10 11 11 11 11 10 8 9 8 7 6 6 6
6 3 5 2 5 6 3 4 2 3 2 1 2 3 2 1 5 6 8 9 12 11 8 7 10 10 10 11 12 12 11 11 11 9 11 8 6 10 9 9 12 11 10 8 7 6 5 5 5
5 4 2 1 3 4 4 7 3 2 3 2 1 3 1 2 5 6 7 8 9 11 10 7 7 7 10 10 10 10 10 10 11 10 11 10 6 7 7 3 7 9 10 9 7 6 4 2 3
5 4 3 2 1 1 4 3 2 4 1 5 2 3 4 6 7 6 5 7 7 9 10 9 8 7 5 6 9 9 10 10 10 10 9 8 8 7 8 8 6 10 8 8 8 6 4 2 1
3 4 2 3 4 4 5 3 7 2 3 3 4 2 5 8 6 5 4 5 6 6 9 9 9 8 7 6 6 8 9 10 10 8 8 6 3 4 6 6 8 10 9 7 7 6 6 5 4
5 4 6 2 2 1 3 5 5 4 6 4 3 4 5 4 4 7 6 7 6 8 7 10 10 10 9 7 7 6 5 4 5 5 6 4 5 4 4 5 7 8 11 9 8 6 5 5 2
2 6 3 2 2 3 2 3 4 2 3 3 2 5 6 4 5 6 7 7 7 7 7 9 10 9 10 8 6 4 3 3 4 6 6 5 4 3 3 2 2 2 6 3 5 3 3 4 3
2 5 3 4 2 0 4 3 4 3 6 4 6 5 7 9 10 11 9 8 6 6 8 10 10 9 9 6 6 7 6 6 5 6 8 5 3 4 4 3 4 4 3 4 4 3 4 5 5
4 4 7 7 3 5 4 5 5 6 10 11 4 4 10 9 10 9 9 7 8 8 7 7 10 11 10 9 6 7 8 7 8 6 8 6 5 5 4 5 4 4 4 4 4 4 4 5 5
3 4 4 3 5 3 4 5 3 6 8 9 8 7 10 11 14 7 8 12 11 9 8 7 7 10 9 10 10 8 7 8 8 8 8 10 7 6 6 6 6 5 6 6 6 6 5 5 5
3 5 5 4 4 3 3 6 8 10 5 8 12 10 9 11 7 13 15 15 15 13 11 10 8 8 11 11 10 8 8 8 8 9 10 10 10 9 9 7 6 6 5 6 5 5 4 4 5
4 2 3 4 3 6 5 15 6 10 6 10 10 9 8 11 10 13 12 14 13 12 16 13 9 9 10 11 9 8 8 8 8 8 8 12 11 10 9 8 8 7 6 6 4 5 5 5 5
4 5 4 5 5 4 8 6 8 9 5 8 9 9 8 8 10 10 12 13 12 13 12 13 11 12 12 10 8 8 9 8 8 8 8 11 12 10 9 8 7 7 6 7 7 6 5 4 5
8 7 4 4 2 3 7 13 13 8 6 9 8 9 9 9 13 9 9 11 12 12 13 12 10 11 9 8 5 5 6 7 6 8 9 11 9 11 10 8 7 7 6 7 5 6 5 4 6
3 4 6 2 6 3 9 14 12 9 5 8 9 9 9 11 12 11 9 9 9 7 10 13 11 13 8 7 8 9 9 6 7 7 10 11 11 11 12 9 8 8 9 10 9 7 9 7 4
7 10 8 7 8 4 8 13 10 6 7 8 11 14 14 11 11 14 10 8 8 13 14 13 14 12 10 9 8 8 7 8 7 8 10 11 14 13 13 12 10 10 8 8 9 10 5 7 7
9 12 4 12 5 7 5 17 11 11 8 9 10 14 13 17 16 15 8 7 7 8 9 12 14 11 9 10 4 3 2 3 4 8 10 12 14 14 14 13 12 11 10 10 11 11 13 10 5
15 7 6 6 0 7 3 13 13 10 15 9 10 9 12 11 8 6 5 3 5 5 4 3 5 5 5 6 6 10 10 11 10 11 9 10 13 15 14 15 14 13 10 12 11 11 12 11 10
7 6 8 8 5 4 15 7 14 5 9 6 8 11 11 9 7 5 6 6 5 6 6 6 4 4 5 5 7 8 10 10 8 8 11 12 11 13 13 14 15 14 11 13 14 12 13 11 12
3 2 1 2 2 11 10 7 12 13 11 5 11 7 6 5 8 7 5 4 6 7 8 8 8 6 7 4 6 8 10 10 9 10 9 9 9 9 13 14 14 14 13 14 13 15 15 15 13
4 4 3 5 7 10 6 9 18 7 7 9 8 6 8 7 6 7 9 8 8 10 11 9 8 8 7 7 6 6 8 10 13 12 10 11 9 8 11 13 14 12 14 15 14 14 15 15 15
11 12 8 7 6 5 1 9 11 10 12 8 6 9 5 5 6 9 9 10 11 13 14 14 14 13 13 12 12 8 6 4 7 10 10 10 10 11 13 13 14 16 16 15 15 12 13 15 14
5 13 8 6 3 5 5 8 9 9 2 3 8 9 8 7 9 11 11 11 11 13 13 14 15 15 15 14 12 12 10 9 8 10 10 9 11 10 12 12 14 16 16 17 16 13 15 15 14
6 7 4 7 5 5 3 5 8 6 6 4 6 7 7 8 11 11 11 11 10 10 10 12 13 13 13 16 15 13 13 12 11 9 10 11 11 10 12 12 12 14 16 16 17 14 15 16 13
6 8 4 3 4 6 2 6 7 5 5 8 6 8 10 8 8 8 9 8 9 9 11 12 13 13 14 16 16 16 16 15 13 11 10 10 11 11 11 13 13 14 14 15 16 16 16 17 16
9 13 15 8 8 3 1 6 8 2 4 5 8 10 8 9 9 9 10 10 12 12 12 12 13 13 13 13 14 15 15 16 16 15 15 13 12 11 11 11 11 12 13 13 15 16 14 16 17
Wind_Direction
323 317 4 39 54 59 9 351 309 33 58 236 278 95 132 58 117 212 35 141 135 140 149 149 146 141 135 130 119 112 115 114 122 124 138 137 128 116 125 121 110 116 108 113 105 93 92 87 72
316 325 36 78 78 66 291 295 115 190 195 208 64 98 71 132 136 126 100 156 140 140 141 144 146 143 138 135 133 134 133 130 132 140 143 151 129 130 132 125 127 117 121 111 109 105 94 83 76
316 7 68 78 102 143 183 216 187 213 175 151 87 57 126 161 324 166 149 147 136 139 138 144 143 144 144 145 143 142 137 137 136 141 149 157 143 134 143 132 127 135 125 125 117 103 97 87 78
358 2 28 76 358 280 195 183 230 137 349 345 125 78 47 268 160 197 149 142 134 139 140 147 150 148 153 151 149 146 144 143 148 146 158 167 146 135 147 134 141 146 136 130 115 114 97 82 73
32 52 40 30 339 334 44 171 177 155 196 214 191 177 107 346 181 128 133 141 134 132 143 149 152 154 159 159 157 155 156 154 151 150 163 177 152 142 151 143 138 138 144 128 130 116 93 79 71
24 75 46 23 318 310 341 334 71 53 348 54 72 84 218 135 124 162 132 147 143 143 149 151 153 158 166 167 165 167 166 164 156 155 158 185 154 156 151 165 154 149 144 150 141 123 100 77 63
88 63 223 248 289 355 318 326 19 71 7 343 294 115 275 196 205 166 145 147 153 149 150 152 155 164 171 178 179 174 172 171 170 166 163 173 200 168 151 149 163 167 172 167 159 147 130 96 63
103 92 312 285 314 288 300 18 358 43 15 295 94 193 229 201 193 159 144 152 160 161 160 160 161 157 171 176 183 182 176 177 176 172 172 177 191 185 165 173 200 189 165 150 166 173 171 192 308
79 62 249 259 25 278 338 36 340 307 39 346 23 61 306 129 145 152 163 154 172 178 174 167 167 167 166 174 184 188 186 184 179 178 174 176 194 198 189 188 207 197 187 180 182 186 196 200 259
95 134 224 169 282 265 330 17 320 356 353 344 10 31 26 109 162 174 193 190 190 189 194 179 177 176 171 173 175 188 194 190 186 178 184 176 193 203 196 205 209 203 198 174 199 205 206 205 252
164 185 230 262 277 340 289 300 317 13 295 223 211 189 179 187 203 210 219 211 201 203 193 188 185 185 179 182 172 176 183 184 188 187 191 192 184 203 215 212 229 201 182 186 200 204 203 218 227
258 245 206 284 140 12 267 264 302 240 235 270 271 242 178 193 201 203 218 221 213 212 216 186 193 186 194 188 179 182 182 189 190 199 200 180 194 199 205 202 201 199 196 202 213 217 222 225 228
203 266 278 273 254 241 256 248 250 254 274 282 283 190 206 209 219 226 208 222 225 218 225 223 184 196 192 188 185 189 192 191 196 198 202 190 190 196 198 210 194 196 195 203 207 218 225 229 227
275 256 265 262 289 282 245 257 165 270 263 283 297 257 234 219 217 211 218 219 220 221 217 227 222 197 186 188 188 189 194 195 197 203 208 197 192 192 193 202 210 209 203 206 206 208 216 226 225
269 279 289 225 244 262 307 281 232 247 280 279 281 269 249 233 234 222 219 218 212 214 217 207 213 220 198 196 193 191 193 193 202 208 209 208 195 190 190 202 208 210 207 212 210 225 225 225 227
351 290 234 241 196 248 162 257 265 254 242 265 292 290 265 260 232 237 233 226 215 214 209 212 200 209 218 207 199 200 197 198 206 207 211 212 212 192 196 201 207 202 195 202 202 211 220 222 218
213 248 247 313 229 247 182 278 252 252 223 273 285 304 291 269 276 253 236 220 222 217 217 219 200 204 214 219 211 208 205 205 207 207 209 212 213 205 204 212 215 194 201 206 211 217 202 206 222
230 243 263 225 268 217 261 265 262 277 295 293 301 298 294 282 274 265 250 230 218 213 211 216 208 212 206 213 206 218 219 221 213 218 219 215 217 209 206 211 212 198 203 211 204 202 204 202 212
258 235 243 270 267 295 274 264 259 258 270 277 285 276 272 268 264 270 254 232 212 219 213 213 208 212 191 195 208 219 220 214 229 229 224 217 216 210 211 216 209 203 210 217 211 211 214 227 201
242 263 267 275 262 244 269 268 265 262 254 237 254 270 267 269 273 264 259 249 221 218 213 216 214 216 203 202 215 215 209 224 217 223 228 218 217 211 213 214 212 209 216 216 211 211 219 231 187
228 235 228 251 340 290 287 275 275 264 248 255 260 257 264 257 264 269 273 259 259 246 225 219 220 223 218 212 200 192 257 271 214 223 226 226 224 222 217 215 215 211 210 219 216 215 218 230 215
239 186 232 249 291 258 171 286 277 279 265 241 248 263 258 261 279 274 257 54 36 332 277 225 224 220 231 199 200 204 218 229 231 235 235 231 220 224 219 219 215 214 210 219 215 215 219 219 229
228 189 216 230 219 258 257 276 275 216 265 248 260 247 260 246 237 103 86 76 43 33 45 47 26 342 303 269 234 221 229 241 243 240 243 237 232 221 219 214 219 220 217 221 219 213 213 216 227
107 172 12 50 147 247 244 209 258 265 261 242 247 276 297 132 126 105 98 83 59 32 26 22 23 19 10 339 272 253 252 245 249 246 242 240 238 230 222 219 222 221 222 223 223 219 213 215 222
150 133 254 234 217 254 185 198 244 275 289 228 228 206 140 148 107 90 63 38 32 31 24 18 14 5 2 354 337 308 280 272 264 257 249 243 237 231 231 224 223 224 225 227 225 222 221 220 221
193 181 193 207 217 254 240 229 254 233 263 236 240 182 149 121 96 69 56 45 41 32 26 23 15 9 4 358 342 327 305 284 283 275 267 256 241 238 230 227 225 226 226 226 227 225 223 225 228
174 211 237 279 165 268 205 274 292 257 265 140 145 135 145 97 70 68 56 47 38 34 27 22 17 10 6 359 352 340 331 321 302 293 287 275 255 247 242 227 222 224 225 224 224 225 227 227 228
194 153 180 211 237 248 234 247 238 337 267 183 145 134 89 75 67 58 49 41 35 30 24 24 20 12 1 357 352 341 330 326 320 307 295 291 280 255 245 235 227 226 226 227 224 225 227 227 226
164 195 166 169 220 236 219 254 224 281 193 174 148 98 92 73 63 57 53 42 34 25 22 16 14 11 5 357 345 340 337 333 330 324 316 307 300 283 256 247 240 234 231 228 228 228 227 223 225
212 204 206 220 218 256 161 265 267 231 116 28 70 82 81 74 58 48 38 29 26 17 12 10 5 9 1 351 342 340 338 339 338 333 327 329 318 304 279 260 249 242 236 232 231 232 226 228 225